Overview Statistics Trail Chart Weather Telemetry Raw packets
 

This is the latest recevied weather packets stored in our database for station/object NT9G. If no packets are shown the sender has not sent any weather packets the latest 10 day(s).

<< 31 32 33 34 35 36 37 >>
Time Temp. Humidity Pressure Rain* Wind** Luminosity Snow
1777647593 11.11° C 61% 1018.4 hPa 0.25 mm - - -
1777647293 10.56° C 65% 1018.4 hPa 0.25 mm - - -
1777646993 10.56° C 64% 1018.4 hPa 0.25 mm - - -
1777646693 10.56° C 65% 1018.4 hPa 0.25 mm - - -
1777646392 10.56° C 67% 1018.3 hPa 0.25 mm - - -
1777646092 10.56° C 67% 1018.5 hPa 0.25 mm - - -
1777645792 10° C 68% 1018.5 hPa 0.25 mm - - -
1777645491 10° C 74% 1018.5 hPa 0.25 mm - - -
1777645191 9.44° C 73% 1018.5 hPa 0.25 mm - - -
1777644891 9.44° C 73% 1018.4 hPa 0.25 mm - - -
1777644591 8.89° C 75% 1018.4 hPa 0.25 mm - - -
1777644290 8.89° C 79% 1018.4 hPa 0.25 mm - - -
1777643990 8.33° C 82% 1018.4 hPa 0.25 mm - - -
1777643690 8.33° C 83% 1018.4 hPa 0.25 mm - - -
1777643389 8.33° C 83% 1018.5 hPa 0.25 mm - - -
1777643089 7.78° C 83% 1018.4 hPa 0.25 mm - - -
1777642789 7.78° C 84% 1018.5 hPa 0.25 mm - - -
1777642489 8.33° C 85% 1018.5 hPa 0.25 mm - - -
1777642188 8.33° C 88% 1018.4 hPa 0.25 mm - - -
1777641888 8.33° C 91% 1018.4 hPa 0.25 mm - - -
1777641588 7.78° C 92% 1018.3 hPa 0.25 mm - - -
1777641287 7.78° C 93% 1018.2 hPa 0.25 mm - - -
1777640987 7.78° C 97% 1018 hPa 0.25 mm - - -
1777640687 7.22° C 100% 1018.1 hPa 0.25 mm - - -
1777640387 7.22° C 100% 1018.1 hPa 0.25 mm - - -

* Rain since midnight (hover to see other rain measurements)
** Current wind speed in m/s (hover to see current wind gust speed)